CZ-3B DEB, 40815

Orbit data source: Space-Track

CZ-3B DEB, 40815 is space debris in HEO originally from a launch on Sat, 04 Sep 2010 UTC launched from the Xichang Space Center, China (XSC). Debris objects in space refer to the collection of defunct objects orbiting the Earth. Examples of debris include non-operational satellites, rocket bodies, and fragments generated from explosions, collisions, or faulty payload assembly.

Loading next visibility...
Identifier
40815, 2010-042Y
Orbit
HEO
Country
Flag of CNCN / PRC
Related business
Manufacturer
CALT
Mission
Spacecraft
Bus & Motor
Unknown
Mass
Unknown
Launch date (UTC)
2010-09-04 (15 years ago)
Launch vehicle
Unknown
Launch site
Xichang Space Center, China (XSC)
Object type
Payload
Rocket body
Debris
Shape & HBR
Unknown shape, 0.2 m
Radar Cross Section
Medium (>0.1 m² and <1 m²)

Expand to show TLE details & history
Last TLE update: 2 days ago

TLE from 2 days ago
0 CZ-3B DEB
1 40815U 10042Y   25350.88481780 -.00000269  00000-0 -15782-1 0  9997
2 40815  25.6228 181.6807 7363142 134.7930 316.0010  1.91048340  3294
Epoch: 2025-12-16T21:14Z
TLE epoch observation values (Epoch: 2025-12-16T21:14:08.257Z)
Latitude
-0.00005°
Longitude
137.53287°
Altitude
19,631.534 km
Speed
4.015 km/s
True Right ascension
12h 07m 19s
True Declination
0° 00' 00"
Sunlit
Object was in daylight at epoch
Visualization orbit readout
Latitude
Unknown
Longitude
Unknown
Altitude
Unknown
Speed
Unknown
Apparent Right ascension
Unknown
Apparent Declination
Unknown
Sunlit
N/A
Visualization observer readout
Local Sidereal Time
07:23:30
Azimuth
Unknown
Elevation
Unknown
Doppler factor
Unknown
Orbital elements
Apogee altitude
41,264.296 km
Perigee altitude
857.093 km
Semi-major axis
27,438.832 km
Eccentricity
0.73631
Inclination
25.6228°
RAAN
181.6807°
Arg. of periapsis
134.793°
True anomaly
225.29716°
Mean anomaly
316.001°
Eccentric anomaly
273.91158°
Mean motion
0.47752 °/min
Orbital period
753.89 mins
BSTAR
-0.015782
Loading maneuver chart data...
Computing Atmospheric mass density...
Loading historical data...
Loading historical data...
Loading historical data...
Loading historical data...
Loading historical data...
Loading historical data...
Loading historical data...

Documentation

Showing up to 5 results
|